MST,Max TemperatureF,Mean TemperatureF,Min TemperatureF,Max Dew PointF,MeanDew PointF,Min DewpointF,Max Humidity, Mean Humidity, Min Humidity, Max Sea Level PressureIn, Mean Sea Level PressureIn, Min Sea Level PressureIn, Max VisibilityMiles, Mean VisibilityMiles, Min VisibilityMiles, Max Wind SpeedMPH, Mean Wind SpeedMPH, Max Gust SpeedMPH,PrecipitationIn, CloudCover, Events, WindDirDegrees
2014-1-1,28,20,12,26,23,13,100,84,68,30.38,30.21,30.03,10,5,1,15,8,17,0.15,6,Snow,261
2014-1-2,44,28,11,30,23,14,92,75,57,30.27,30.01,29.68,10,10,10,30,15,35,0.00,0,,222
2014-1-3,45,33,21,30,22,19,96,72,48,30.04,29.74,29.43,10,5,0,39,18,51,T,7,Fog-Snow,294
2014-1-4,21,11,0,19,6,-4,100,92,83,30.54,30.19,29.94,10,3,0,20,8,24,0.12,8,Fog-Snow,305
2014-1-5,0,-8,-16,-4,-14,-23,83,70,57,30.92,30.57,30.28,10,6,1,28,11,37,T,5,Snow,289
2014-1-6,32,12,-8,19,8,-12,83,68,53,30.58,30.27,30.04,10,10,10,21,8,25,0.00,2,,212
2014-1-7,35,27,18,26,21,17,96,80,64,30.07,30.03,29.98,10,10,10,10,5,13,0.00,6,,209
2014-1-8,40,29,17,28,23,15,92,76,59,30.00,29.88,29.71,10,10,10,25,12,30,0.00,3,,208
2014-1-9,39,32,25,28,22,14,75,66,56,29.69,29.63,29.57,10,10,10,28,16,32,0.00,3,,245
2014-1-10,38,30,22,25,21,13,75,63,50,29.83,29.67,29.59,10,10,10,25,15,34,0.00,6,,260
2014-1-11,48,38,28,33,27,19,92,72,52,29.81,29.47,29.29,10,10,4,43,18,55,0.04,3,Snow,241
2014-1-12,36,29,21,27,24,17,92,72,52,29.83,29.64,29.32,10,6,0,37,19,46,0.01,5,Fog-Snow,280
2014-1-13,46,36,26,30,26,23,100,71,41,30.27,29.96,29.65,10,3,0,45,23,64,0.22,5,Fog-Snow,293
2014-1-14,37,30,23,26,23,18,92,77,61,30.50,30.33,30.16,10,8,2,21,11,28,T,5,Snow,269
2014-1-15,46,39,31,26,24,18,75,58,41,30.32,30.10,30.00,10,10,10,37,20,52,0.00,1,,282
2014-1-16,36,29,22,21,19,16,84,67,49,30.46,30.37,30.23,10,10,10,21,9,28,0.00,3,,267
2014-1-17,44,34,24,28,22,17,78,59,40,30.25,30.15,30.08,10,10,10,24,12,32,0.00,0,,258
2014-1-18,47,35,23,30,24,19,81,63,45,30.29,30.13,29.90,10,10,10,22,11,26,0.00,0,,220
2014-1-19,47,37,26,27,22,18,75,53,31,30.26,29.95,29.84,10,10,10,22,11,29,0.00,2,,276
2014-1-20,40,31,21,20,18,14,84,62,40,30.47,30.35,30.19,10,10,10,15,7,18,0.00,0,,251
2014-1-21,40,34,27,26,21,14,78,61,43,30.32,30.27,30.17,10,10,10,15,7,18,0.00,3,,276
2014-1-22,30,25,20,24,20,17,92,81,69,30.56,30.32,30.18,10,10,10,17,5,20,0.00,8,,44
2014-1-23,41,26,10,26,16,6,100,68,35,30.55,30.41,30.30,10,10,10,21,7,30,0.00,2,,213
2014-1-24,50,41,32,32,29,24,76,61,46,30.27,30.23,30.17,10,10,10,29,12,39,0.00,1,,277
2014-1-25,53,41,28,31,28,25,85,62,38,30.23,30.06,29.93,10,10,10,26,11,34,0.00,1,,267
2014-1-26,36,18,-1,31,18,-6,100,83,66,30.45,30.16,29.91,10,6,0,33,13,42,0.10,6,Fog-Snow,310
2014-1-27,14,5,-4,6,-2,-8,87,77,66,30.53,30.47,30.43,10,10,10,18,7,23,0.00,1,,246
2014-1-28,36,17,-2,19,6,-5,87,62,36,30.48,30.17,29.88,10,10,10,20,10,22,0.00,0,,194
2014-1-29,36,26,16,30,24,15,100,81,61,29.85,29.59,29.41,10,4,0,21,7,24,0.32,6,Fog-Snow,324
2014-1-30,17,4,-10,15,2,-11,96,89,82,30.14,29.91,29.63,10,4,1,18,9,22,0.03,7,Snow,282
2014-1-31,18,5,-8,12,2,-10,95,77,59,30.14,29.97,29.85,10,7,2,20,9,25,T,6,Snow,260